"Sample Date","Sample Time","Sensor Name","Sample Value","Units","Flow Rate","Sample Interval","Sample Volume","Laser Status","Number Channels","Micron Size 0","Counts/Channel 0","Micron Size 1","Counts/Channel 1","Micron Size 2","Counts/Channel 2","Micron Size 3","Counts/Channel 3","Micron Size 4","Counts/Channel 4","Micron Size 5","Counts/Channel 5","Micron Size 6","Counts/Channel 6","Micron Size 7","Counts/Channel 7","Micron Size 8","Counts/Channel 8","Micron Size 9","Counts/Channel 9","Micron Size 10","Counts/Channel 10","Micron Size 11","Counts/Channel 11","Micron Size 12","Counts/Channel 12","Micron Size 13","Counts/Channel 13","Micron Size 14","Counts/Channel 14","Micron Size 15","Counts/Channel 15","Micron Size 16","Counts/Channel 16","Micron Size 17","Counts/Channel 17","Micron Size 18","Counts/Channel 18","Micron Size 19","Counts/Channel 19","Micron Size 20","Counts/Channel 20","Micron Size 21","Counts/Channel 21","Micron Size 22","Counts/Channel 22","Micron Size 23","Counts/Channel 23","Micron Size 24","Counts/Channel 24","Micron Size 25","Counts/Channel 25","Micron Size 26","Counts/Channel 26","Micron Size 27","Counts/Channel 27","Micron Size 28","Counts/Channel 28","Micron Size 29","Counts/Channel 29","Micron Size 30","Counts/Channel 30","Micron Size 31","Counts/Channel 31"
"07/12/06","00:00:02","AMMA06",98311.000,"cc",28305.525,6.00,2830.553,1,6,0.100,47660.000,0.200,40276.000,0.300,8655.000,0.500,1115.000,1.000,604.000,5.000,1.000
"07/12/06","00:00:08","AMMA06",97647.000,"cc",28353.035,6.00,2835.304,1,6,0.100,47605.000,0.200,40304.000,0.300,8480.000,0.500,830.000,1.000,428.000,5.000,0
"07/12/06","00:00:14","AMMA06",96256.000,"cc",28310.252,6.00,2831.025,1,6,0.100,45614.000,0.200,40174.000,0.300,8748.000,0.500,1121.000,1.000,599.000,5.000,0
"07/12/06","00:00:20","AMMA06",95861.000,"cc",28264.887,6.00,2826.489,1,6,0.100,45522.000,0.200,40239.000,0.300,8568.000,0.500,973.000,1.000,559.000,5.000,0
"07/12/06","00:00:26","AMMA06",93193.000,"cc",28277.914,6.00,2827.792,1,6,0.100,44675.000,0.200,39588.000,0.300,8007.000,0.500,658.000,1.000,265.000,5.000,0
"07/12/06","00:00:32","AMMA06",94461.000,"cc",28316.998,6.00,2831.700,1,6,0.100,44954.000,0.200,39830.000,0.300,8293.000,0.500,935.000,1.000,449.000,5.000,0
"07/12/06","00:00:38","AMMA06",93244.000,"cc",28342.973,6.00,2834.297,1,6,0.100,44346.000,0.200,39714.000,0.300,8059.000,0.500,768.000,1.000,357.000,5.000,0
"07/12/06","00:00:44","AMMA06",96365.000,"cc",28333.008,6.00,2833.301,1,6,0.100,45625.000,0.200,39851.000,0.300,8813.000,0.500,1296.000,1.000,780.000,5.000,0
"07/12/06","00:00:50","AMMA06",99346.000,"cc",28346.248,6.00,2834.625,1,6,0.100,48839.000,0.200,40551.000,0.300,8419.000,0.500,949.000,1.000,588.000,5.000,0
"07/12/06","00:00:56","AMMA06",102253.000,"cc",28339.957,6.00,2833.996,1,6,0.100,49184.000,0.200,41186.000,0.300,9329.000,0.500,1611.000,1.000,943.000,5.000,0
"07/12/06","00:01:02","AMMA06",99455.000,"cc",28254.051,6.00,2825.405,1,6,0.100,47568.000,0.200,40630.000,0.300,9049.000,0.500,1426.000,1.000,782.000,5.000,0
"07/12/06","00:01:08","AMMA06",101793.000,"cc",28311.084,6.00,2831.109,1,6,0.100,50491.000,0.200,40906.000,0.300,8677.000,0.500,1113.000,1.000,606.000,5.000,0
"07/12/06","00:01:14","AMMA06",95998.000,"cc",28298.611,6.00,2829.861,1,6,0.100,46657.000,0.200,39611.000,0.300,8385.000,0.500,903.000,1.000,442.000,5.000,0
"07/12/06","00:01:20","AMMA06",98490.000,"cc",28376.930,6.00,2837.693,1,6,0.100,47083.000,0.200,40293.000,0.300,8987.000,0.500,1357.000,1.000,770.000,5.000,0
"07/12/06","00:01:26","AMMA06",95584.000,"cc",28363.240,6.00,2836.324,1,6,0.100,45339.000,0.200,40044.000,0.300,8560.000,0.500,1067.000,1.000,574.000,5.000,0
"07/12/06","00:01:32","AMMA06",93171.000,"cc",28278.750,6.00,2827.875,1,6,0.100,44341.000,0.200,39697.000,0.300,8154.000,0.500,677.000,1.000,302.000,5.000,0
"07/12/06","00:01:38","AMMA06",96341.000,"cc",28273.861,6.00,2827.386,1,6,0.100,45369.000,0.200,40461.000,0.300,8891.000,0.500,1035.000,1.000,585.000,5.000,0
"07/12/06","00:01:44","AMMA06",93356.000,"cc",28307.068,6.00,2830.707,1,6,0.100,44560.000,0.200,39764.000,0.300,8042.000,0.500,667.000,1.000,322.000,5.000,1.000
"07/12/06","00:01:50","AMMA06",93675.000,"cc",28349.705,6.00,2834.971,1,6,0.100,44761.000,0.200,39731.000,0.300,8167.000,0.500,727.000,1.000,289.000,5.000,0
"07/12/06","00:01:56","AMMA06",92014.000,"cc",28303.627,6.00,2830.363,1,6,0.100,43677.000,0.200,39419.000,0.300,8068.000,0.500,605.000,1.000,245.000,5.000,0
"07/12/06","00:02:02","AMMA06",93382.000,"cc",28279.287,6.00,2827.929,1,6,0.100,44314.000,0.200,39854.000,0.300,8290.000,0.500,634.000,1.000,290.000,5.000,0
"07/12/06","00:02:08","AMMA06",95964.000,"cc",28311.953,6.00,2831.196,1,6,0.100,45273.000,0.200,40189.000,0.300,8719.000,0.500,1141.000,1.000,642.000,5.000,0
"07/12/06","00:02:14","AMMA06",95715.000,"cc",28327.029,6.00,2832.703,1,6,0.100,44907.000,0.200,40434.000,0.300,8681.000,0.500,1085.000,1.000,608.000,5.000,0
"07/12/06","00:02:20","AMMA06",93290.000,"cc",28373.484,6.00,2837.349,1,6,0.100,44030.000,0.200,40053.000,0.300,8230.000,0.500,643.000,1.000,334.000,5.000,0
"07/12/06","00:02:26","AMMA06",97238.000,"cc",28350.094,6.00,2835.010,1,6,0.100,45683.000,0.200,40175.000,0.300,9116.000,0.500,1410.000,1.000,854.000,5.000,0
"07/12/06","00:02:32","AMMA06",95557.000,"cc",28332.285,6.00,2833.229,1,6,0.100,45405.000,0.200,40033.000,0.300,8576.000,0.500,964.000,1.000,579.000,5.000,0
"07/12/06","00:02:38","AMMA06",95425.000,"cc",28320.307,6.00,2832.031,1,6,0.100,45645.000,0.200,40301.000,0.300,8295.000,0.500,778.000,1.000,406.000,5.000,0
"07/12/06","00:02:44","AMMA06",93182.000,"cc",28291.543,6.00,2829.155,1,6,0.100,44212.000,0.200,40053.000,0.300,7979.000,0.500,666.000,1.000,272.000,5.000,0
"07/12/06","00:02:50","AMMA06",94312.000,"cc",28284.141,6.00,2828.414,1,6,0.100,45368.000,0.200,39854.000,0.300,8124.000,0.500,643.000,1.000,323.000,5.000,0
"07/12/06","00:02:56","AMMA06",93778.000,"cc",28351.686,6.00,2835.169,1,6,0.100,45096.000,0.200,39762.000,0.300,7996.000,0.500,628.000,1.000,296.000,5.000,0
"07/12/06","00:03:02","AMMA06",96181.000,"cc",28305.570,6.00,2830.557,1,6,0.100,46717.000,0.200,40253.000,0.300,8167.000,0.500,718.000,1.000,326.000,5.000,0
"07/12/06","00:03:08","AMMA06",94585.000,"cc",28303.041,6.00,2830.304,1,6,0.100,45168.000,0.200,39785.000,0.300,8286.000,0.500,895.000,1.000,451.000,5.000,0
"07/12/06","00:03:14","AMMA06",92683.000,"cc",28287.557,6.00,2828.756,1,6,0.100,44301.000,0.200,39522.000,0.300,8013.000,0.500,590.000,1.000,257.000,5.000,0
"07/12/06","00:03:20","AMMA06",93298.000,"cc",28304.555,6.00,2830.456,1,6,0.100,45038.000,0.200,39277.000,0.300,8009.000,0.500,653.000,1.000,321.000,5.000,0
"07/12/06","00:03:26","AMMA06",96665.000,"cc",28370.818,6.00,2837.082,1,6,0.100,46893.000,0.200,40071.000,0.300,8307.000,0.500,894.000,1.000,500.000,5.000,0
"07/12/06","00:03:32","AMMA06",101364.000,"cc",28325.906,6.00,2832.591,1,6,0.100,50234.000,0.200,40652.000,0.300,8781.000,0.500,1056.000,1.000,641.000,5.000,0
"07/12/06","00:03:38","AMMA06",104036.000,"cc",28300.742,6.00,2830.075,1,6,0.100,52175.000,0.200,41219.000,0.300,8967.000,0.500,1062.000,1.000,612.000,5.000,1.000
"07/12/06","00:03:44","AMMA06",104241.000,"cc",28304.941,6.00,2830.494,1,6,0.100,52268.000,0.200,41316.000,0.300,8910.000,0.500,1088.000,1.000,659.000,5.000,0
"07/12/06","00:03:50","AMMA06",97791.000,"cc",28297.898,6.00,2829.790,1,6,0.100,48250.000,0.200,40228.000,0.300,8177.000,0.500,763.000,1.000,373.000,5.000,0
"07/12/06","00:03:56","AMMA06",92909.000,"cc",28302.647,6.00,2830.265,1,6,0.100,44999.000,0.200,39481.000,0.300,7651.000,0.500,552.000,1.000,226.000,5.000,0
"07/12/06","00:04:02","AMMA06",94465.000,"cc",28349.658,6.00,2834.966,1,6,0.100,45200.000,0.200,39644.000,0.300,8334.000,0.500,854.000,1.000,433.000,5.000,0
"07/12/06","00:04:08","AMMA06",94836.000,"cc",28284.393,6.00,2828.440,1,6,0.100,45818.000,0.200,39521.000,0.300,8153.000,0.500,897.000,1.000,447.000,5.000,0
"07/12/06","00:04:14","AMMA06",96357.000,"cc",28333.865,6.00,2833.387,1,6,0.100,45983.000,0.200,40139.000,0.300,8544.000,0.500,1108.000,1.000,583.000,5.000,0
"07/12/06","00:04:20","AMMA06",96551.000,"cc",28326.791,6.00,2832.679,1,6,0.100,46554.000,0.200,39877.000,0.300,8559.000,0.500,1001.000,1.000,560.000,5.000,0
"07/12/06","00:04:26","AMMA06",94335.000,"cc",28327.986,6.00,2832.799,1,6,0.100,45911.000,0.200,39382.000,0.300,8057.000,0.500,666.000,1.000,319.000,5.000,0
"07/12/06","00:04:32","AMMA06",94077.000,"cc",28339.209,6.00,2833.921,1,6,0.100,46060.000,0.200,39301.000,0.300,7775.000,0.500,627.000,1.000,314.000,5.000,0
"07/12/06","00:04:38","AMMA06",93704.000,"cc",28334.555,6.00,2833.456,1,6,0.100,45075.000,0.200,39400.000,0.300,8110.000,0.500,772.000,1.000,347.000,5.000,0
"07/12/06","00:04:44","AMMA06",96370.000,"cc",28289.477,6.00,2828.948,1,6,0.100,46861.000,0.200,39650.000,0.300,8302.000,0.500,1011.000,1.000,545.000,5.000,1.000
"07/12/06","00:04:50","AMMA06",97301.000,"cc",28245.756,6.00,2824.576,1,6,0.100,46914.000,0.200,39696.000,0.300,8819.000,0.500,1237.000,1.000,635.000,5.000,0
"07/12/06","00:04:56","AMMA06",95502.000,"cc",28381.152,6.00,2838.116,1,6,0.100,46666.000,0.200,39160.000,0.300,8354.000,0.500,854.000,1.000,467.000,5.000,1.000
"07/12/06","00:05:02","AMMA06",95043.000,"cc",28303.758,6.00,2830.376,1,6,0.100,46098.000,0.200,39469.000,0.300,8287.000,0.500,778.000,1.000,411.000,5.000,0
"07/12/06","00:05:08","AMMA06",93280.000,"cc",28282.799,6.00,2828.280,1,6,0.100,45037.000,0.200,39378.000,0.300,7915.000,0.500,666.000,1.000,284.000,5.000,0
"07/12/06","00:05:14","AMMA06",93226.000,"cc",28397.086,6.00,2839.709,1,6,0.100,45023.000,0.200,39243.000,0.300,7922.000,0.500,705.000,1.000,333.000,5.000,0
"07/12/06","00:05:20","AMMA06",94412.000,"cc",28297.850,6.00,2829.785,1,6,0.100,44963.000,0.200,39637.000,0.300,8488.000,0.500,879.000,1.000,444.000,5.000,1.000
"07/12/06","00:05:26","AMMA06",94534.000,"cc",28299.359,6.00,2829.936,1,6,0.100,45262.000,0.200,39625.000,0.300,8387.000,0.500,849.000,1.000,411.000,5.000,0
"07/12/06","00:05:32","AMMA06",97284.000,"cc",28296.772,6.00,2829.677,1,6,0.100,46997.000,0.200,40219.000,0.300,8650.000,0.500,928.000,1.000,490.000,5.000,0
"07/12/06","00:05:38","AMMA06",94489.000,"cc",28285.440,6.00,2828.544,1,6,0.100,45143.000,0.200,40095.000,0.300,8188.000,0.500,739.000,1.000,324.000,5.000,0
"07/12/06","00:05:44","AMMA06",94163.000,"cc",28359.547,6.00,2835.955,1,6,0.100,44980.000,0.200,39992.000,0.300,8142.000,0.500,738.000,1.000,311.000,5.000,0
"07/12/06","00:05:50","AMMA06",94797.000,"cc",28380.377,6.00,2838.038,1,6,0.100,44398.000,0.200,40752.000,0.300,8359.000,0.500,874.000,1.000,414.000,5.000,0
"07/12/06","00:05:56","AMMA06",95988.000,"cc",28297.490,6.00,2829.749,1,6,0.100,45935.000,0.200,40150.000,0.300,8589.000,0.500,840.000,1.000,474.000,5.000,0
"07/12/06","00:06:02","AMMA06",96276.000,"cc",28236.969,6.00,2823.697,1,6,0.100,45638.000,0.200,40323.000,0.300,8709.000,0.500,1020.000,1.000,586.000,5.000,0
"07/12/06","00:06:08","AMMA06",95904.000,"cc",28349.057,6.00,2834.906,1,6,0.100,45439.000,0.200,40368.000,0.300,8624.000,0.500,973.000,1.000,500.000,5.000,0
"07/12/06","00:06:14","AMMA06",98540.000,"cc",28283.100,6.00,2828.310,1,6,0.100,47882.000,0.200,40862.000,0.300,8565.000,0.500,841.000,1.000,390.000,5.000,0
"07/12/06","00:06:20","AMMA06",99067.000,"cc",28301.520,6.00,2830.152,1,6,0.100,47829.000,0.200,40758.000,0.300,8758.000,0.500,1085.000,1.000,637.000,5.000,0
"07/12/06","00:06:26","AMMA06",100475.000,"cc",28333.613,6.00,2833.362,1,6,0.100,48858.000,0.200,41002.000,0.300,8895.000,0.500,1123.000,1.000,597.000,5.000,0
"07/12/06","00:06:32","AMMA06",102142.000,"cc",28391.900,6.00,2839.190,1,6,0.100,50676.000,0.200,41302.000,0.300,8736.000,0.500,930.000,1.000,497.000,5.000,1.000
"07/12/06","00:06:38","AMMA06",93956.000,"cc",28291.248,6.00,2829.125,1,6,0.100,44944.000,0.200,39925.000,0.300,8138.000,0.500,644.000,1.000,305.000,5.000,0
"07/12/06","00:06:44","AMMA06",97812.000,"cc",28300.650,6.00,2830.065,1,6,0.100,47391.000,0.200,40498.000,0.300,8586.000,0.500,882.000,1.000,455.000,5.000,0
"07/12/06","00:06:50","AMMA06",110308.000,"cc",28319.566,6.00,2831.957,1,6,0.100,56937.000,0.200,42839.000,0.300,9112.000,0.500,919.000,1.000,501.000,5.000,0
"07/12/06","00:06:56","AMMA06",100335.000,"cc",28300.723,6.00,2830.073,1,6,0.100,48642.000,0.200,40954.000,0.300,8892.000,0.500,1226.000,1.000,621.000,5.000,0
"07/12/06","00:07:02","AMMA06",96484.000,"cc",28337.359,6.00,2833.736,1,6,0.100,45781.000,0.200,40413.000,0.300,8685.000,0.500,1026.000,1.000,579.000,5.000,0
"07/12/06","00:07:08","AMMA06",95122.000,"cc",28315.340,6.00,2831.534,1,6,0.100,45483.000,0.200,40138.000,0.300,8403.000,0.500,727.000,1.000,371.000,5.000,0
"07/12/06","00:07:14","AMMA06",93885.000,"cc",28275.908,6.00,2827.591,1,6,0.100,44612.000,0.200,39844.000,0.300,8238.000,0.500,796.000,1.000,395.000,5.000,0
"07/12/06","00:07:20","AMMA06",93655.000,"cc",28318.414,6.00,2831.842,1,6,0.100,45236.000,0.200,39431.000,0.300,8090.000,0.500,646.000,1.000,252.000,5.000,0
"07/12/06","00:07:26","AMMA06",95234.000,"cc",28333.686,6.00,2833.369,1,6,0.100,45955.000,0.200,39863.000,0.300,8273.000,0.500,789.000,1.000,354.000,5.000,0
"07/12/06","00:07:32","AMMA06",93404.000,"cc",28321.266,6.00,2832.127,1,6,0.100,45204.000,0.200,39300.000,0.300,8061.000,0.500,607.000,1.000,232.000,5.000,0
"07/12/06","00:07:38","AMMA06",94880.000,"cc",28324.121,6.00,2832.412,1,6,0.100,45169.000,0.200,39641.000,0.300,8472.000,0.500,1031.000,1.000,567.000,5.000,0
"07/12/06","00:07:44","AMMA06",96209.000,"cc",28314.752,6.00,2831.475,1,6,0.100,46077.000,0.200,39944.000,0.300,8646.000,0.500,1042.000,1.000,500.000,5.000,0
"07/12/06","00:07:50","AMMA06",98355.000,"cc",28315.438,6.00,2831.544,1,6,0.100,48080.000,0.200,40098.000,0.300,8690.000,0.500,987.000,1.000,499.000,5.000,1.000
"07/12/06","00:07:56","AMMA06",97281.000,"cc",28326.268,6.00,2832.627,1,6,0.100,47529.000,0.200,39862.000,0.300,8523.000,0.500,920.000,1.000,447.000,5.000,0
"07/12/06","00:08:02","AMMA06",93254.000,"cc",28288.270,6.00,2828.827,1,6,0.100,45195.000,0.200,39093.000,0.300,8047.000,0.500,641.000,1.000,278.000,5.000,0
"07/12/06","00:08:08","AMMA06",94018.000,"cc",28371.607,6.00,2837.161,1,6,0.100,45430.000,0.200,39478.000,0.300,8074.000,0.500,743.000,1.000,293.000,5.000,0
"07/12/06","00:08:14","AMMA06",93418.000,"cc",28306.147,6.00,2830.615,1,6,0.100,44798.000,0.200,39125.000,0.300,8254.000,0.500,832.000,1.000,409.000,5.000,0
"07/12/06","00:08:20","AMMA06",93741.000,"cc",28316.592,6.00,2831.659,1,6,0.100,45116.000,0.200,39373.000,0.300,8245.000,0.500,675.000,1.000,332.000,5.000,0
"07/12/06","00:08:26","AMMA06",95872.000,"cc",28304.195,6.00,2830.420,1,6,0.100,45866.000,0.200,39632.000,0.300,8714.000,0.500,1101.000,1.000,559.000,5.000,0
"07/12/06","00:08:32","AMMA06",92637.000,"cc",28300.846,6.00,2830.085,1,6,0.100,44984.000,0.200,38987.000,0.300,7868.000,0.500,592.000,1.000,206.000,5.000,0
"07/12/06","00:08:38","AMMA06",93697.000,"cc",28316.729,6.00,2831.673,1,6,0.100,44895.000,0.200,39688.000,0.300,8097.000,0.500,723.000,1.000,294.000,5.000,0
"07/12/06","00:08:44","AMMA06",93784.000,"cc",28321.371,6.00,2832.137,1,6,0.100,44845.000,0.200,39514.000,0.300,8326.000,0.500,763.000,1.000,336.000,5.000,0
"07/12/06","00:08:50","AMMA06",93846.000,"cc",28306.938,6.00,2830.694,1,6,0.100,44766.000,0.200,39679.000,0.300,8256.000,0.500,798.000,1.000,347.000,5.000,0
"07/12/06","00:08:56","AMMA06",93465.000,"cc",28282.920,6.00,2828.292,1,6,0.100,44901.000,0.200,39327.000,0.300,8248.000,0.500,710.000,1.000,279.000,5.000,0
"07/12/06","00:09:02","AMMA06",94390.000,"cc",28340.424,6.00,2834.043,1,6,0.100,45249.000,0.200,39524.000,0.300,8396.000,0.500,828.000,1.000,392.000,5.000,1.000
"07/12/06","00:09:08","AMMA06",94089.000,"cc",28305.809,6.00,2830.581,1,6,0.100,45152.000,0.200,39467.000,0.300,8308.000,0.500,806.000,1.000,356.000,5.000,0
"07/12/06","00:09:14","AMMA06",94118.000,"cc",28341.248,6.00,2834.125,1,6,0.100,45449.000,0.200,39411.000,0.300,8189.000,0.500,713.000,1.000,356.000,5.000,0
"07/12/06","00:09:20","AMMA06",94985.000,"cc",28311.637,6.00,2831.164,1,6,0.100,45683.000,0.200,39242.000,0.300,8574.000,0.500,941.000,1.000,545.000,5.000,0
"07/12/06","00:09:26","AMMA06",95849.000,"cc",28343.023,6.00,2834.303,1,6,0.100,46074.000,0.200,39395.000,0.300,8725.000,0.500,1083.000,1.000,572.000,5.000,0
"07/12/06","00:09:32","AMMA06",95894.000,"cc",28344.385,6.00,2834.439,1,6,0.100,45853.000,0.200,39749.000,0.300,8572.000,0.500,1130.000,1.000,590.000,5.000,0
"07/12/06","00:09:38","AMMA06",94428.000,"cc",28304.795,6.00,2830.480,1,6,0.100,45692.000,0.200,39241.000,0.300,8289.000,0.500,831.000,1.000,375.000,5.000,0
"07/12/06","00:09:44","AMMA06",96617.000,"cc",28280.410,6.00,2828.041,1,6,0.100,46500.000,0.200,39582.000,0.300,8699.000,0.500,1196.000,1.000,640.000,5.000,0
"07/12/06","00:09:50","AMMA06",95551.000,"cc",28327.193,6.00,2832.720,1,6,0.100,46110.000,0.200,39200.000,0.300,8681.000,0.500,1050.000,1.000,510.000,5.000,0
"07/12/06","00:09:56","AMMA06",94561.000,"cc",28346.973,6.00,2834.698,1,6,0.100,46085.000,0.200,39181.000,0.300,8187.000,0.500,765.000,1.000,343.000,5.000,0
"07/12/06","00:10:02","AMMA06",93970.000,"cc",28318.961,6.00,2831.896,1,6,0.100,45933.000,0.200,38929.000,0.300,8105.000,0.500,725.000,1.000,278.000,5.000,0
"07/12/06","00:10:08","AMMA06",96105.000,"cc",28279.012,6.00,2827.901,1,6,0.100,46283.000,0.200,39236.000,0.300,8716.000,0.500,1197.000,1.000,673.000,5.000,0
"07/12/06","00:10:14","AMMA06",94534.000,"cc",28336.590,6.00,2833.659,1,6,0.100,45773.000,0.200,39048.000,0.300,8290.000,0.500,955.000,1.000,468.000,5.000,0
"07/12/06","00:10:20","AMMA06",93922.000,"cc",28302.152,6.00,2830.215,1,6,0.100,45303.000,0.200,39287.000,0.300,8183.000,0.500,788.000,1.000,361.000,5.000,0
"07/12/06","00:10:26","AMMA06",95283.000,"cc",28312.711,6.00,2831.271,1,6,0.100,45587.000,0.200,39873.000,0.300,8430.000,0.500,929.000,1.000,464.000,5.000,0
"07/12/06","00:10:32","AMMA06",93651.000,"cc",28315.014,6.00,2831.502,1,6,0.100,45035.000,0.200,39546.000,0.300,8163.000,0.500,639.000,1.000,268.000,5.000,0
"07/12/06","00:10:38","AMMA06",93263.000,"cc",28325.326,6.00,2832.533,1,6,0.100,44649.000,0.200,39288.000,0.300,8266.000,0.500,717.000,1.000,343.000,5.000,0
"07/12/06","00:10:44","AMMA06",93701.000,"cc",28325.326,6.00,2832.533,1,6,0.100,44980.000,0.200,39758.000,0.300,8058.000,0.500,655.000,1.000,250.000,5.000,0
"07/12/06","00:10:50","AMMA06",94265.000,"cc",28338.334,6.00,2833.834,1,6,0.100,45518.000,0.200,39670.000,0.300,8206.000,0.500,624.000,1.000,247.000,5.000,0
"07/12/06","00:10:56","AMMA06",93390.000,"cc",28326.885,6.00,2832.689,1,6,0.100,44692.000,0.200,39653.000,0.300,8184.000,0.500,603.000,1.000,258.000,5.000,0
"07/12/06","00:11:02","AMMA06",93813.000,"cc",28290.879,6.00,2829.088,1,6,0.100,45098.000,0.200,39445.000,0.300,8272.000,0.500,698.000,1.000,299.000,5.000,1.000
"07/12/06","00:11:08","AMMA06",95881.000,"cc",28235.506,6.00,2823.551,1,6,0.100,45344.000,0.200,40489.000,0.300,8626.000,0.500,956.000,1.000,466.000,5.000,0
"07/12/06","00:11:14","AMMA06",97218.000,"cc",28370.522,6.00,2837.052,1,6,0.100,46224.000,0.200,40094.000,0.300,9046.000,0.500,1166.000,1.000,688.000,5.000,0
"07/12/06","00:11:20","AMMA06",96755.000,"cc",28346.900,6.00,2834.690,1,6,0.100,45687.000,0.200,40162.000,0.300,9101.000,0.500,1185.000,1.000,620.000,5.000,0
"07/12/06","00:11:26","AMMA06",94943.000,"cc",28323.824,6.00,2832.383,1,6,0.100,45409.000,0.200,39902.000,0.300,8434.000,0.500,797.000,1.000,401.000,5.000,0
"07/12/06","00:11:32","AMMA06",97872.000,"cc",28335.232,6.00,2833.523,1,6,0.100,46141.000,0.200,40373.000,0.300,9185.000,0.500,1388.000,1.000,785.000,5.000,0
"07/12/06","00:11:38","AMMA06",94767.000,"cc",28339.697,6.00,2833.970,1,6,0.100,44875.000,0.200,40025.000,0.300,8624.000,0.500,822.000,1.000,421.000,5.000,0
"07/12/06","00:11:44","AMMA06",93827.000,"cc",28299.549,6.00,2829.955,1,6,0.100,44606.000,0.200,39765.000,0.300,8334.000,0.500,747.000,1.000,375.000,5.000,0
"07/12/06","00:11:50","AMMA06",94924.000,"cc",28289.648,6.00,2828.965,1,6,0.100,44501.000,0.200,40139.000,0.300,8750.000,0.500,1000.000,1.000,534.000,5.000,0
"07/12/06","00:11:56","AMMA06",93957.000,"cc",28365.873,6.00,2836.587,1,6,0.100,44105.000,0.200,40401.000,0.300,8369.000,0.500,754.000,1.000,328.000,5.000,0
"07/12/06","00:12:02","AMMA06",93320.000,"cc",28307.508,6.00,2830.751,1,6,0.100,44146.000,0.200,40022.000,0.300,8236.000,0.500,673.000,1.000,243.000,5.000,0
"07/12/06","00:12:08","AMMA06",92856.000,"cc",28321.977,6.00,2832.198,1,6,0.100,43921.000,0.200,39917.000,0.300,8147.000,0.500,594.000,1.000,277.000,5.000,0
"07/12/06","00:12:14","AMMA06",94432.000,"cc",28269.920,6.00,2826.992,1,6,0.100,44530.000,0.200,40646.000,0.300,8297.000,0.500,657.000,1.000,302.000,5.000,0
"07/12/06","00:12:20","AMMA06",94789.000,"cc",28288.506,6.00,2828.851,1,6,0.100,44783.000,0.200,40370.000,0.300,8474.000,0.500,794.000,1.000,368.000,5.000,0
"07/12/06","00:12:26","AMMA06",94146.000,"cc",28307.117,6.00,2830.712,1,6,0.100,44350.000,0.200,40429.000,0.300,8313.000,0.500,744.000,1.000,309.000,5.000,1.000
"07/12/06","00:12:32","AMMA06",98025.000,"cc",28361.625,6.00,2836.163,1,6,0.100,46854.000,0.200,40907.000,0.300,8850.000,0.500,913.000,1.000,501.000,5.000,0
"07/12/06","00:12:38","AMMA06",97903.000,"cc",28316.881,6.00,2831.688,1,6,0.100,47365.000,0.200,41015.000,0.300,8451.000,0.500,723.000,1.000,349.000,5.000,0
"07/12/06","00:12:44","AMMA06",93293.000,"cc",28255.244,6.00,2825.525,1,6,0.100,44104.000,0.200,40089.000,0.300,8238.000,0.500,617.000,1.000,245.000,5.000,0
"07/12/06","00:12:50","AMMA06",93482.000,"cc",28369.236,6.00,2836.924,1,6,0.100,44140.000,0.200,39908.000,0.300,8408.000,0.500,702.000,1.000,324.000,5.000,0
"07/12/06","00:12:56","AMMA06",94299.000,"cc",28309.090,6.00,2830.909,1,6,0.100,44930.000,0.200,40357.000,0.300,8031.000,0.500,666.000,1.000,314.000,5.000,1.000
"07/12/06","00:13:02","AMMA06",94182.000,"cc",28347.420,6.00,2834.742,1,6,0.100,45127.000,0.200,40106.000,0.300,8072.000,0.500,600.000,1.000,277.000,5.000,0
"07/12/06","00:13:08","AMMA06",93732.000,"cc",28323.543,6.00,2832.355,1,6,0.100,44985.000,0.200,39933.000,0.300,8028.000,0.500,548.000,1.000,238.000,5.000,0
"07/12/06","00:13:14","AMMA06",93811.000,"cc",28346.275,6.00,2834.628,1,6,0.100,44779.000,0.200,39964.000,0.300,8078.000,0.500,693.000,1.000,297.000,5.000,0
"07/12/06","00:13:20","AMMA06",93596.000,"cc",28271.029,6.00,2827.103,1,6,0.100,44726.000,0.200,39867.000,0.300,8118.000,0.500,617.000,1.000,268.000,5.000,0
"07/12/06","00:13:26","AMMA06",93386.000,"cc",28277.877,6.00,2827.788,1,6,0.100,44982.000,0.200,39896.000,0.300,7784.000,0.500,515.000,1.000,209.000,5.000,0
"07/12/06","00:13:32","AMMA06",95160.000,"cc",28354.766,6.00,2835.477,1,6,0.100,45811.000,0.200,39822.000,0.300,8217.000,0.500,873.000,1.000,437.000,5.000,0
"07/12/06","00:13:38","AMMA06",95992.000,"cc",28353.209,6.00,2835.321,1,6,0.100,46410.000,0.200,39724.000,0.300,8374.000,0.500,985.000,1.000,499.000,5.000,0
"07/12/06","00:13:44","AMMA06",95310.000,"cc",28305.582,6.00,2830.558,1,6,0.100,46054.000,0.200,39948.000,0.300,8131.000,0.500,776.000,1.000,401.000,5.000,0
"07/12/06","00:13:50","AMMA06",95035.000,"cc",28327.582,6.00,2832.758,1,6,0.100,46449.000,0.200,39765.000,0.300,7921.000,0.500,626.000,1.000,274.000,5.000,0
"07/12/06","00:13:56","AMMA06",94724.000,"cc",28290.211,6.00,2829.021,1,6,0.100,45901.000,0.200,39805.000,0.300,7978.000,0.500,686.000,1.000,354.000,5.000,0
"07/12/06","00:14:02","AMMA06",94898.000,"cc",28286.920,6.00,2828.692,1,6,0.100,45453.000,0.200,39735.000,0.300,8357.000,0.500,917.000,1.000,436.000,5.000,0
"07/12/06","00:14:08","AMMA06",94086.000,"cc",28335.660,6.00,2833.566,1,6,0.100,45069.000,0.200,39747.000,0.300,8084.000,0.500,776.000,1.000,410.000,5.000,0
"07/12/06","00:14:14","AMMA06",93309.000,"cc",28296.061,6.00,2829.606,1,6,0.100,45399.000,0.200,39348.000,0.300,7764.000,0.500,574.000,1.000,224.000,5.000,0